Location: Casa Rossa
(45.2389°N, 12.2056°E)
Time: 22:17:30
(UTC+00:00)

SL-08 R/B - Pass Details

Date: 14 July 2020
Orbit: 674 x 739 km, 98.4° (Epoch: 14 August)

Event Time Altitude Azimuth Distance (km) Brightness Sun altitude
Exits shadow 01:22:17 - 146° (SE) 2,729 6.1 -17.3°
Reaches altitude 10° 01:23:44 10° 141° (SE) 2,164 5.6 -17.2°
Maximum altitude 01:28:15 46° 69° (ENE) 961 4.4 -16.8°
Drops below altitude 10° 01:32:53 10° 358° (N) 2,218 6.7 -16.3°
Sets 01:35:15 0° 352° (N) 3,153 7.5 -16.1°
